EHI
0 0 0 0 0 0 0 0 0 0 0 0 0 0 0 0 0 0 0 0 0 2 7 13 19 23 23 26 30 34 34 29 22 18 14 10 7 4 1 0 0 0 0 0 0 0 0 0 0
0 0 0 0 0 0 0 0 0 0 0 0 0 0 0 0 0 0 0 0 0 1 4 9 16 19 20 23 27 30 31 28 23 19 16 11 7 4 1 0 0 0 0 0 0 0 0 0 0
0 0 0 0 0 0 0 0 0 0 0 0 0 0 0 0 0 0 0 0 0 0 1 5 11 15 17 20 22 24 25 25 23 21 17 12 7 4 1 0 0 0 0 0 0 0 0 0 0
0 0 0 0 0 0 0 0 0 0 0 0 0 0 0 0 0 0 0 0 0 0 0 2 7 11 15 17 18 18 19 19 20 19 16 12 7 4 1 0 0 0 0 0 0 0 0 0 0
0 0 0 0 0 0 0 0 0 0 0 0 0 0 0 0 0 0 0 1 2 2 1 0 3 7 10 13 14 12 11 12 14 16 15 11 7 3 1 1 1 1 0 1 0 0 0 0 0
0 0 0 0 0 0 0 0 0 0 0 0 0 0 0 0 0 0 0 1 2 3 2 0 1 4 7 9 9 7 5 6 8 12 13 10 6 3 1 1 1 1 0 0 0 0 0 0 0
0 0 0 0 0 0 0 0 0 0 0 0 0 0 0 0 0 0 0 1 2 3 2 1 0 2 4 5 5 3 2 3 5 8 9 7 5 3 1 1 1 0 0 0 0 0 0 0 0
0 0 0 0 0 0 0 0 0 0 0 0 0 0 0 0 0 0 0 1 2 3 3 1 1 1 1 2 1 1 1 2 4 4 4 3 2 1 1 0 0 0 0 0 0 0 0 0 0
0 0 0 0 0 0 0 0 0 0 0 0 0 0 0 0 0 0 0 1 2 2 2 3 2 1 0 0 0 0 0 1 1 1 1 1 0 0 0 0 0 0 0 0 0 0 0 0 0
0 0 0 0 0 0 0 0 0 0 0 0 0 0 0 0 0 0 0 0 1 1 1 3 3 2 1 0 0 0 0 0 0 0 0 0 0 0 0 0 0 0 0 0 0 0 0 0 0
0 0 0 0 0 0 0 0 0 0 0 0 0 0 0 0 0 0 0 0 0 0 0 1 2 3 2 1 0 0 0 0 0 0 0 0 0 0 1 1 0 0 0 0 0 0 0 0 0
0 0 0 0 0 0 0 0 0 0 0 0 0 0 0 0 0 0 0 0 0 0 0 0 1 3 3 2 1 0 0 0 0 0 0 0 1 1 2 1 0 0 0 0 0 0 0 0 0
0 0 0 0 0 0 0 0 0 0 0 0 0 0 0 0 0 0 0 0 0 0 0 0 1 2 3 2 1 0 0 0 0 1 0 0 0 1 1 1 0 0 0 0 0 0 0 0 0
0 0 0 0 0 0 0 0 0 0 0 0 0 0 0 0 0 0 0 0 0 0 0 0 1 2 2 1 0 0 0 0 1 2 1 0 0 0 0 0 0 0 0 0 0 0 0 0 0
0 0 0 0 0 0 0 0 0 0 0 0 0 0 0 0 0 0 0 0 0 0 0 0 0 1 1 0 0 0 0 0 0 1 1 0 0 0 0 0 0 0 0 0 0 0 0 0 0
0 0 0 0 0 0 0 0 0 0 0 0 0 0 0 0 0 0 0 0 0 0 0 0 0 0 0 0 0 0 0 0 0 0 0 0 0 0 0 0 0 0 0 0 0 0 0 0 0
0 0 0 0 0 0 0 0 0 0 0 0 0 0 0 0 0 0 0 0 0 0 0 0 0 0 0 0 0 0 0 0 0 0 0 0 0 0 0 0 0 0 0 0 0 0 0 0 0
0 0 0 0 0 0 0 0 0 0 0 0 0 0 0 0 0 0 0 0 0 0 0 0 0 0 0 0 0 0 0 0 0 0 0 0 0 0 0 0 0 0 0 0 0 0 0 0 0
0 0 0 0 0 0 0 0 0 0 0 0 0 0 0 0 0 0 0 0 0 0 0 0 0 0 0 0 0 0 0 0 0 0 0 0 0 0 0 1 0 0 0 0 0 0 0 0 0
0 0 0 0 0 0 0 0 0 0 0 0 0 0 0 0 0 0 0 0 0 0 0 0 0 0 0 0 0 0 0 0 0 0 0 0 0 0 0 0 0 0 0 0 0 0 0 0 0
0 0 0 0 0 0 0 0 0 0 0 0 0 0 0 0 0 0 0 0 0 0 0 0 0 0 0 0 0 0 0 0 0 0 0 0 0 0 0 0 0 0 0 0 0 0 0 0 0
0 0 0 0 0 0 0 0 0 0 0 0 0 0 0 0 0 0 0 0 0 0 0 0 0 0 0 0 0 0 0 0 0 0 0 0 0 0 0 0 0 0 0 0 0 0 0 0 0
0 0 0 0 0 0 0 0 0 0 0 0 0 0 0 0 0 0 0 0 0 0 0 0 0 0 0 0 0 0 0 0 0 0 0 0 0 0 0 0 0 0 0 0 0 0 0 0 0
0 0 0 0 0 0 0 0 0 0 0 0 0 0 0 0 0 0 0 0 0 0 0 0 0 0 0 0 0 0 0 0 0 0 0 0 0 0 0 0 0 0 0 0 0 0 0 0 0
0 0 0 0 0 0 0 0 0 0 0 0 0 0 0 0 0 0 0 0 0 0 0 0 0 0 0 0 0 0 0 0 0 0 0 0 0 0 0 0 0 0 0 0 0 0 0 0 0
0 0 0 0 0 0 0 0 0 0 0 0 0 0 0 0 0 0 0 0 0 0 0 0 0 0 0 0 0 0 0 0 0 0 0 0 0 0 0 0 0 0 0 0 0 0 0 0 0
0 0 0 0 0 0 0 0 0 0 0 0 0 0 0 0 0 0 0 0 0 0 0 0 0 0 0 0 0 0 0 0 0 0 0 0 0 0 0 0 0 0 0 0 0 0 0 0 0
0 0 0 0 0 0 0 0 0 0 0 0 0 0 0 0 0 0 0 0 0 0 0 0 0 0 0 0 0 0 0 0 0 0 0 0 0 0 0 0 0 0 0 0 0 0 0 0 0
0 0 0 0 0 0 0 0 0 0 0 0 0 0 0 0 0 0 0 0 0 0 0 0 0 0 0 0 0 0 0 0 0 0 0 0 0 0 0 0 0 0 0 0 0 0 0 0 0
0 0 0 0 0 0 0 0 0 0 0 0 0 0 0 0 0 0 0 0 0 0 0 0 0 0 0 0 0 0 0 0 0 0 0 0 0 0 0 0 0 0 0 0 0 0 0 0 0
Wind_Speed
2 2 3 4 6 6 9 6 5 5 5 3 3 4 5 5 3 3 6 7 6 2 6 10 10 12 13 13 12 11 12 13 14 14 15 14 14 13 13 12 12 12 12 12 12 12 12 12 12
1 2 4 5 7 8 7 7 9 6 2 1 4 5 5 4 2 4 5 8 6 1 4 8 10 11 12 12 13 12 13 13 13 14 14 14 14 13 13 13 13 12 12 11 12 12 12 12 11
1 1 5 5 8 8 4 4 6 5 2 2 3 3 4 2 3 4 7 7 4 0 3 6 8 10 11 12 12 12 13 13 13 14 14 14 13 13 13 13 12 11 11 11 12 12 12 11 11
3 4 3 7 11 6 1 3 2 5 4 3 3 3 1 2 4 5 7 6 3 0 2 5 6 8 10 11 12 12 13 13 13 13 13 13 14 13 13 12 11 10 11 12 12 11 11 10 10
2 4 7 8 10 4 4 1 1 4 4 3 4 4 2 2 4 6 7 6 4 1 1 3 4 6 8 10 11 12 13 13 13 14 14 14 14 13 13 12 11 11 11 12 12 11 10 10 9
4 5 7 10 9 5 5 4 4 6 5 3 4 6 3 1 4 7 7 6 4 2 1 3 4 4 6 8 10 11 12 13 13 13 14 14 13 13 12 12 13 13 13 12 12 11 10 10 9
5 5 6 7 6 6 4 3 6 6 7 4 3 5 3 1 4 7 6 5 4 3 2 2 4 5 6 7 8 10 11 12 12 12 12 12 11 11 12 12 13 13 13 12 12 11 10 9 9
2 4 5 6 6 4 2 2 2 5 6 3 4 6 3 3 7 8 7 6 4 3 3 3 3 5 6 7 8 8 9 10 11 11 11 10 10 11 11 12 12 12 12 12 11 11 10 9 8
3 6 7 5 5 3 3 3 2 3 5 5 5 7 6 9 9 9 8 7 6 5 4 4 4 4 5 6 6 8 9 10 11 11 11 10 10 11 11 12 11 11 12 11 11 10 9 8 7
6 7 5 2 2 2 2 3 4 4 7 8 8 8 8 10 9 9 9 9 8 7 6 5 5 5 5 4 5 6 7 9 11 10 12 10 9 8 8 10 10 10 11 11 11 9 9 8 7
5 5 3 3 3 3 4 5 5 7 9 8 9 10 10 11 11 10 10 10 10 9 8 7 6 5 5 4 4 4 4 6 9 11 11 9 8 6 7 6 8 9 10 10 10 10 8 7 5
4 3 3 2 2 4 6 6 7 10 11 9 10 12 13 13 12 12 11 11 10 10 10 8 7 6 6 6 5 5 5 5 6 8 10 8 6 7 7 6 7 7 6 8 8 6 7 7 7
5 3 3 5 6 8 9 11 11 13 13 12 13 13 14 14 14 13 12 12 12 11 10 10 8 8 7 6 5 6 6 6 7 7 9 10 8 8 8 6 7 7 7 7 7 7 8 7 7
3 3 5 6 7 7 10 12 11 11 9 10 12 13 13 13 14 13 12 12 12 12 11 9 9 9 8 7 6 6 6 6 7 7 9 11 8 8 8 8 8 8 7 7 7 8 7 6 5
2 3 4 5 5 4 6 11 10 9 9 11 12 12 12 12 12 12 12 13 13 11 10 10 9 9 10 9 8 7 6 7 7 7 9 10 9 9 8 8 8 7 7 8 7 7 6 5 5
3 4 3 2 3 4 6 9 3 4 8 11 10 10 10 10 10 10 11 11 11 11 10 10 8 9 9 9 8 6 6 7 7 7 8 10 11 11 9 8 8 8 7 7 7 6 6 6 6
4 3 4 2 3 4 7 10 7 7 8 10 10 9 9 9 10 9 10 10 9 10 10 10 9 9 9 8 7 7 6 7 7 7 7 9 11 11 9 7 7 8 7 7 7 7 7 6 6
2 3 4 4 2 5 9 12 11 8 8 9 9 9 9 9 10 10 10 9 9 9 9 9 9 8 8 6 6 5 6 7 7 7 8 10 9 11 9 7 8 8 7 6 7 7 6 6 5
2 4 6 6 5 7 10 12 11 8 7 7 8 9 9 10 10 9 8 8 7 7 8 8 8 8 7 6 6 6 7 7 7 7 9 10 10 10 9 7 8 8 7 8 8 7 7 6 4
4 5 6 5 4 6 9 11 8 5 6 6 8 9 9 10 10 9 8 7 6 6 7 7 8 7 7 6 6 5 5 5 6 5 7 9 9 9 8 9 7 8 7 8 8 7 6 5 5
5 6 5 6 7 5 7 6 3 3 4 5 7 8 8 9 10 9 8 7 6 6 6 5 6 7 7 7 5 4 4 4 4 5 5 6 7 8 8 9 8 8 7 7 8 8 9 6 6
3 3 5 6 6 3 4 4 1 5 5 7 8 9 9 9 9 8 8 8 7 6 5 5 4 5 5 6 6 7 5 5 5 4 4 5 5 6 7 7 8 7 6 7 8 8 7 7 6
3 3 5 5 4 4 2 4 3 4 6 9 10 10 10 9 9 9 8 8 7 5 4 3 2 2 3 4 5 5 5 4 3 3 4 4 4 4 5 6 6 6 5 6 7 7 8 6 6
4 3 3 3 3 3 1 3 2 3 7 10 10 10 10 9 10 9 9 8 6 5 3 1 1 2 2 3 3 3 4 4 3 3 3 3 3 3 4 4 5 5 5 6 6 7 8 7 8
2 3 2 2 2 0 1 2 3 4 6 7 8 9 10 9 9 9 10 9 7 7 5 3 2 2 2 2 3 2 2 3 3 3 3 3 2 2 3 3 4 4 4 5 5 6 7 7 8
1 2 3 3 2 1 1 2 2 3 5 6 7 8 9 10 9 9 9 8 8 7 6 4 3 2 2 3 3 2 2 2 2 2 2 2 2 2 2 3 3 3 3 4 5 5 6 6 7
1 1 1 2 2 3 1 2 1 2 4 6 7 8 9 9 9 9 9 9 8 8 7 5 4 3 3 3 3 2 2 2 2 2 2 1 2 1 1 2 3 3 3 4 4 4 5 6 6
2 1 2 3 3 2 1 1 2 3 5 5 6 7 8 8 9 9 8 8 8 8 7 6 5 4 3 3 2 2 2 2 1 1 1 1 1 1 2 2 3 2 3 3 3 3 4 5 5
1 1 2 2 3 3 2 1 0 2 3 4 5 6 6 7 7 8 8 7 7 7 7 6 5 5 4 4 3 3 2 2 2 1 1 1 1 1 2 2 2 2 3 3 3 3 4 4 4
2 2 2 2 1 3 2 0 1 2 2 2 4 4 5 5 6 6 6 6 7 7 7 6 5 5 4 4 3 3 2 2 2 1 1 0 1 1 2 2 2 2 3 3 4 4 4 4 5
Wind_Direction
334 295 217 194 197 219 230 212 207 186 195 208 233 241 244 238 252 43 34 7 345 293 180 166 167 166 166 164 162 161 159 160 160 160 159 160 161 160 159 157 152 150 147 142 139 134 129 123 119
326 216 192 200 221 220 217 205 205 193 141 216 225 236 236 234 350 8 10 354 334 294 180 172 161 170 169 167 166 166 165 165 165 164 163 164 165 164 163 160 157 154 149 142 138 134 129 125 123
159 225 197 200 222 232 209 178 208 191 195 230 211 230 254 280 7 4 0 340 327 296 181 157 161 173 174 171 172 171 171 171 170 168 168 168 168 168 168 164 160 155 148 143 139 135 133 131 129
186 170 200 225 224 229 257 124 147 192 192 212 242 215 188 18 357 354 346 341 336 332 189 150 162 179 179 176 176 178 178 178 176 173 172 172 172 172 172 166 159 151 146 146 142 141 139 138 136
196 189 201 222 228 212 215 193 217 213 195 198 246 246 208 98 7 353 350 352 345 332 223 164 161 177 185 184 182 184 184 183 181 178 178 177 177 176 171 165 158 153 152 150 149 149 147 145 143
174 199 214 223 215 205 216 227 241 239 232 240 257 253 239 116 357 351 348 347 342 325 261 188 166 181 189 192 191 193 192 190 186 184 182 181 179 177 171 164 162 160 159 156 156 157 156 155 150
199 204 227 231 220 212 204 219 238 247 242 246 271 255 222 191 348 336 337 335 332 323 286 235 201 195 193 196 197 199 198 194 191 188 185 183 179 175 171 168 169 167 165 162 161 162 163 161 157
223 210 214 216 218 206 163 199 249 264 265 282 260 252 240 349 337 326 324 321 316 308 289 272 241 219 211 205 199 201 202 198 195 191 186 181 177 177 172 174 173 172 169 166 166 167 168 164 161
203 219 219 207 209 182 169 209 225 270 261 255 250 267 299 320 320 319 318 312 306 298 287 276 263 243 229 222 208 205 201 199 197 196 185 184 192 189 182 185 173 174 172 169 170 172 168 164 161
202 225 223 185 202 187 203 253 281 256 250 250 250 261 283 297 302 305 306 303 295 290 289 275 265 254 243 232 219 216 209 202 205 204 195 198 200 196 191 169 171 173 171 171 173 172 169 187 178
203 231 191 200 220 256 261 271 269 263 258 260 275 289 296 295 291 287 287 290 286 282 279 274 263 253 244 233 227 222 214 209 210 206 200 198 196 191 189 175 174 179 179 183 177 181 188 197 192
192 212 220 217 235 255 266 272 267 254 262 287 292 293 292 289 286 282 280 282 283 276 271 268 260 252 243 236 230 224 218 212 209 205 203 198 192 193 187 187 186 186 189 190 189 195 190 200 199
204 207 233 252 263 265 266 262 268 265 270 279 282 282 280 280 279 277 277 274 274 269 266 264 258 250 240 232 230 226 221 217 211 206 205 202 197 194 190 190 189 191 191 192 194 197 194 201 204
192 229 261 270 264 260 261 265 258 263 277 282 282 281 281 278 278 277 274 270 268 264 261 258 254 248 239 233 228 228 225 219 214 208 207 204 202 198 192 192 193 193 194 195 196 199 197 202 207
209 249 254 248 248 247 265 262 241 265 283 284 284 283 282 281 278 274 274 272 269 265 262 255 250 244 238 235 232 228 225 220 214 210 208 205 205 202 196 196 194 195 194 194 196 197 198 204 209
200 220 224 199 235 229 249 265 267 298 292 289 290 290 286 287 285 281 278 274 268 263 259 254 248 240 234 233 231 227 224 220 215 211 209 208 207 204 199 199 197 193 190 191 193 195 198 202 209
196 225 250 262 224 240 244 272 296 306 295 292 294 295 293 293 294 291 285 279 273 265 258 252 244 240 233 229 225 226 224 222 217 212 210 209 207 203 200 202 199 192 191 193 195 200 203 204 208
197 236 261 270 274 262 260 271 289 298 293 293 298 299 297 296 298 299 294 288 274 264 257 250 243 236 231 225 221 221 221 220 218 214 212 209 207 204 201 203 200 194 191 191 195 201 205 208 203
237 259 272 279 290 280 271 279 289 296 296 304 307 306 305 302 303 302 297 292 280 267 254 247 240 232 221 212 211 212 215 212 212 213 214 209 207 205 203 201 199 195 196 196 195 196 202 205 194
239 258 270 283 288 277 282 283 282 291 302 310 314 316 314 313 313 312 307 300 284 268 258 247 237 231 221 217 213 215 216 215 215 211 213 209 205 203 203 201 198 197 196 198 198 196 199 199 192
248 249 269 291 308 268 285 270 252 314 317 326 328 323 322 318 316 316 312 308 294 276 262 252 243 234 223 215 208 204 201 207 210 205 207 206 201 201 202 202 200 199 199 199 200 198 201 201 199
265 252 263 277 286 290 300 287 312 338 337 347 344 342 338 333 327 325 323 322 311 293 276 259 243 229 222 210 205 203 202 206 212 207 198 194 197 202 204 204 202 200 200 201 203 202 206 206 203
261 282 268 267 263 272 254 271 308 346 342 349 350 347 345 341 338 337 334 330 325 314 298 273 232 210 206 201 199 198 198 198 200 198 192 196 196 203 206 206 204 201 201 204 204 205 210 213 212
257 260 233 223 240 249 280 264 315 353 339 338 345 348 348 351 352 353 351 348 347 348 348 352 151 166 175 172 173 182 189 183 191 195 191 193 192 194 207 208 205 205 205 207 210 213 215 218 221
251 278 234 208 219 261 73 256 296 330 338 340 346 351 354 360 0 1 1 2 3 5 15 47 82 103 135 132 128 146 171 169 182 192 194 195 200 199 207 214 213 211 214 215 216 220 223 224 226
277 297 318 315 325 1 191 268 314 331 341 353 358 357 359 3 2 3 5 5 8 12 22 41 62 75 85 97 101 111 126 142 157 179 189 195 204 213 215 219 225 222 219 221 219 220 224 228 230
242 247 331 291 291 275 272 273 266 331 346 358 0 5 4 2 1 2 7 11 13 16 23 33 55 65 77 90 99 106 118 132 137 156 178 197 220 217 208 215 225 224 220 222 224 224 226 230 234
289 281 228 254 289 288 269 277 316 317 338 353 360 1 0 2 4 4 9 14 15 18 21 32 45 50 57 73 82 93 110 120 132 146 154 169 207 216 208 211 222 230 238 231 222 230 235 236 237
202 211 255 258 290 296 303 68 59 289 327 344 352 353 356 1 4 4 6 10 15 20 26 36 42 48 49 54 64 76 92 116 130 130 141 177 212 230 224 225 223 226 237 241 229 228 236 243 250
254 274 266 278 259 268 282 285 108 262 296 335 343 349 356 4 7 6 8 13 19 22 27 35 37 41 42 47 55 59 57 73 83 86 78 11 324 293 250 233 231 235 242 240 237 237 239 243 250